カタログに戻る

COSMOS 970 DEB

運用中LEO
NORAD 10564·DEBRIS·🇷🇺 Russia

打ち上げ Dec 21, 1977 から Baikonur Cosmodrome

Loading…

次のパス (今後24時間)

TLE

最新Source: Space-Track

元期: Sep 14, 2026, 00:56 UTC

1 10564U 77121F   26257.03918098  .00000064  00000-0  14936-3 0  9990
2 10564  65.8626 117.6280 0147546 357.8299 151.6966 13.70622601432962

AllMySatでCOSMOS 970 DEBをリアルタイム追跡

Download on the App Store